Location: Gajan
(43.0218°N, 1.1244°E)
Time: 09:56:39
(UTC+00:00)

N. Korean satellite - Pass Details

Date: 26 September 2021
Orbit: 450 x 495 km, 97.3° (Epoch: 15 October)

Event Time Altitude Azimuth Distance (km) Brightness Sun altitude
Rises 04:37:18 0° 23° (NNE) 2,530 10.7 -13.5°
Reaches altitude 10° 04:39:33 10° 35° (NE) 1,656 9.9 -13.1°
Maximum altitude 04:42:40 28° 96° (E) 932 8.8 -12.6°
Drops below altitude 10° 04:45:48 10° 157° (SSE) 1,665 9.4 -12.0°
Sets 04:48:04 0° 169° (S) 2,548 10.2 -11.6°
